When you browse on this site, cookies collect data to enhance your experience and personalize the content and advertising you see.
Visit our Privacy Policy to learn more. By continuing to use the site, you agree to this use of cookies and data.
  • In Österreich
  • Länderverzeichnis
  • Für 7 Tage
  • Wassertemperatur
  • Wetterkarte
  • News
  • Widgets
  • user-avatar
    Anmelden

    Stündliche Wetter Tallahassee

    Heute, 24 September, Dienstag

    Zeit Temperatur Niederschläge Wind Luftdruck Luftfeuchtigkeit
    00:00 +23°C° 0 mm 1 m/S 757 mmHg 77%
    01:00 +23°C° 0 mm 1 m/S 756 mmHg 78%
    02:00 +23°C° 0 mm 1 m/S 756 mmHg 80%
    03:00 +23°C° 0 mm 1 m/S 756 mmHg 81%
    04:00 +23°C° 0 mm 1 m/S 756 mmHg 81%
    05:00 +23°C° 0 mm 1 m/S 757 mmHg 82%
    06:00 +21°C° 0 mm 0 m/S 757 mmHg 82%
    07:00 +26°C° 0 mm 1 m/S 757 mmHg 71%
    08:00 +29°C° 0 mm 1 m/S 757 mmHg 60%
    09:00 +32°C° 0 mm 1 m/S 757 mmHg 49%
    10:00 +33°C° 0 mm 1 m/S 757 mmHg 44%
    11:00 +35°C° 0 mm 1 m/S 756 mmHg 39%
    12:00 +36°C° 0 mm 1 m/S 756 mmHg 35%
    13:00 +36°C° 0 mm 1 m/S 755 mmHg 35%
    14:00 +36°C° 0 mm 1 m/S 755 mmHg 36%
    15:00 +36°C° 0 mm 1 m/S 754 mmHg 36%
    16:00 +33°C° 0 mm 1 m/S 754 mmHg 45%
    17:00 +31°C° 0 mm 1 m/S 754 mmHg 53%
    18:00 +29°C° 0 mm 1 m/S 754 mmHg 61%
    19:00 +28°C° 0 mm 1 m/S 755 mmHg 65%
    20:00 +27°C° 0 mm 1 m/S 755 mmHg 69%
    21:00 +27°C° 0 mm 1 m/S 755 mmHg 73%
    22:00 +27°C° 0 mm 1 m/S 755 mmHg 75%
    23:00 +26°C° 0 mm 1 m/S 755 mmHg 76%

    Morgen, 25 September, Mittwoch

    Zeit Temperatur Niederschläge Wind Luftdruck Luftfeuchtigkeit
    00:00 +26°C° 0 mm 1 m/S 754 mmHg 78%
    01:00 +26°C° 0 mm 1 m/S 754 mmHg 79%
    02:00 +26°C° 0 mm 1 m/S 754 mmHg 81%
    03:00 +25°C° 0 mm 1 m/S 754 mmHg 82%
    04:00 +26°C° 0 mm 1 m/S 755 mmHg 83%
    05:00 +26°C° 0 mm 1 m/S 755 mmHg 84%
    06:00 +26°C° 0 mm 1 m/S 756 mmHg 85%
    07:00 +28°C° 0.1 mm 1 m/S 756 mmHg 76%
    08:00 +31°C° 0.1 mm 1 m/S 756 mmHg 67%
    09:00 +33°C° 0.1 mm 1 m/S 757 mmHg 58%
    10:00 +34°C° 0.2 mm 1 m/S 756 mmHg 54%
    11:00 +35°C° 0.2 mm 1 m/S 756 mmHg 50%
    12:00 +36°C° 0.2 mm 1 m/S 755 mmHg 46%
    13:00 +35°C° 0 mm 1 m/S 755 mmHg 50%
    14:00 +34°C° 0 mm 1 m/S 755 mmHg 54%
    15:00 +33°C° 0 mm 1 m/S 754 mmHg 58%
    16:00 +32°C° 0.1 mm 1 m/S 754 mmHg 63%
    17:00 +30°C° 0.1 mm 1 m/S 755 mmHg 68%
    18:00 +29°C° 0.1 mm 1 m/S 755 mmHg 73%
    19:00 +29°C° 0 mm 1 m/S 755 mmHg 75%
    20:00 +28°C° 0 mm 1 m/S 755 mmHg 76%
    21:00 +28°C° 0 mm 2 m/S 756 mmHg 78%
    22:00 +27°C° 0 mm 1 m/S 755 mmHg 79%
    23:00 +27°C° 0 mm 1 m/S 755 mmHg 81%

    übermorgen, 26 September, Donnerstag

    Zeit Temperatur Niederschläge Wind Luftdruck Luftfeuchtigkeit
    00:00 +26°C° 0 mm 1 m/S 755 mmHg 82%
    01:00 +26°C° 0 mm 1 m/S 755 mmHg 83%
    02:00 +26°C° 0 mm 1 m/S 755 mmHg 85%
    03:00 +26°C° 0 mm 1 m/S 755 mmHg 86%
    04:00 +26°C° 0.1 mm 1 m/S 756 mmHg 87%
    05:00 +26°C° 0.1 mm 1 m/S 756 mmHg 87%
    06:00 +26°C° 0.1 mm 1 m/S 756 mmHg 87%
    07:00 +28°C° 0.1 mm 1 m/S 756 mmHg 79%
    08:00 +30°C° 0.1 mm 1 m/S 757 mmHg 71%
    09:00 +32°C° 0.1 mm 1 m/S 757 mmHg 63%
    10:00 +33°C° 0.3 mm 1 m/S 757 mmHg 59%
    11:00 +34°C° 0.3 mm 1 m/S 756 mmHg 54%
    12:00 +35°C° 0.3 mm 1 m/S 756 mmHg 49%
    13:00 +33°C° 0.5 mm 1 m/S 756 mmHg 57%
    14:00 +32°C° 0.5 mm 1 m/S 755 mmHg 64%
    15:00 +30°C° 0.5 mm 1 m/S 755 mmHg 72%
    16:00 +29°C° 0.1 mm 1 m/S 755 mmHg 76%
    17:00 +28°C° 0.1 mm 1 m/S 755 mmHg 80%
    18:00 +27°C° 0.1 mm 1 m/S 755 mmHg 84%
    19:00 +27°C° 0 mm 1 m/S 756 mmHg 84%
    20:00 +27°C° 0 mm 1 m/S 756 mmHg 85%
    21:00 +27°C° 0 mm 1 m/S 756 mmHg 85%
    22:00 +26°C° 0 mm 1 m/S 756 mmHg 86%
    23:00 +26°C° 0 mm 1 m/S 756 mmHg 86%

    27 September, Freitag

    Zeit Temperatur Niederschläge Wind Luftdruck Luftfeuchtigkeit
    00:00 +26°C° 0 mm 1 m/S 756 mmHg 87%
    01:00 +25°C° 0 mm 1 m/S 756 mmHg 88%
    02:00 +25°C° 0 mm 1 m/S 756 mmHg 89%
    03:00 +25°C° 0 mm 1 m/S 756 mmHg 89%
    04:00 +25°C° 0 mm 1 m/S 756 mmHg 89%
    05:00 +23°C° 0 mm 0 m/S 757 mmHg 89%
    06:00 +23°C° 0 mm 0 m/S 757 mmHg 89%
    07:00 +26°C° 0 mm 0 m/S 757 mmHg 78%
    08:00 +31°C° 0 mm 1 m/S 758 mmHg 66%
    09:00 +33°C° 0 mm 1 m/S 758 mmHg 55%
    10:00 +34°C° 0 mm 1 m/S 758 mmHg 50%
    11:00 +35°C° 0 mm 1 m/S 758 mmHg 45%
    12:00 +37°C° 0 mm 2 m/S 757 mmHg 40%
    13:00 +37°C° 0 mm 2 m/S 757 mmHg 43%
    14:00 +36°C° 0 mm 2 m/S 757 mmHg 46%
    15:00 +35°C° 0 mm 2 m/S 756 mmHg 49%
    16:00 +32°C° 0 mm 2 m/S 757 mmHg 55%
    17:00 +30°C° 0 mm 2 m/S 757 mmHg 62%
    18:00 +29°C° 0 mm 2 m/S 757 mmHg 69%
    19:00 +28°C° 0 mm 1 m/S 757 mmHg 72%
    20:00 +27°C° 0 mm 1 m/S 758 mmHg 76%
    21:00 +26°C° 0 mm 1 m/S 758 mmHg 79%
    22:00 +26°C° 0 mm 1 m/S 758 mmHg 80%
    23:00 +26°C° 0 mm 1 m/S 758 mmHg 81%

    28 September, Samstag

    Zeit Temperatur Niederschläge Wind Luftdruck Luftfeuchtigkeit
    00:00 +24°C° 0 mm 0 m/S 758 mmHg 82%
    01:00 +25°C° 0 mm 1 m/S 758 mmHg 85%
    02:00 +25°C° 0 mm 1 m/S 758 mmHg 87%
    03:00 +25°C° 0 mm 1 m/S 758 mmHg 89%
    04:00 +25°C° 0 mm 1 m/S 759 mmHg 90%
    05:00 +25°C° 0 mm 1 m/S 759 mmHg 90%
    06:00 +25°C° 0 mm 1 m/S 760 mmHg 90%
    07:00 +27°C° 0 mm 1 m/S 760 mmHg 80%
    08:00 +30°C° 0 mm 1 m/S 760 mmHg 70%
    09:00 +32°C° 0 mm 1 m/S 761 mmHg 59%
    10:00 +33°C° 0 mm 1 m/S 761 mmHg 54%
    11:00 +35°C° 0 mm 2 m/S 760 mmHg 50%
    12:00 +36°C° 0 mm 2 m/S 760 mmHg 45%
    13:00 +36°C° 0 mm 2 m/S 760 mmHg 45%
    14:00 +35°C° 0 mm 2 m/S 759 mmHg 45%
    15:00 +35°C° 0 mm 2 m/S 759 mmHg 44%
    16:00 +32°C° 0 mm 2 m/S 759 mmHg 52%
    17:00 +30°C° 0 mm 2 m/S 759 mmHg 59%
    18:00 +28°C° 0 mm 1 m/S 759 mmHg 67%
    19:00 +27°C° 0 mm 1 m/S 760 mmHg 70%
    20:00 +27°C° 0 mm 1 m/S 760 mmHg 73%
    21:00 +26°C° 0 mm 1 m/S 760 mmHg 76%
    22:00 +26°C° 0 mm 1 m/S 760 mmHg 77%
    23:00 +23°C° 0 mm 0 m/S 760 mmHg 78%

    29 September, Sonntag

    Zeit Temperatur Niederschläge Wind Luftdruck Luftfeuchtigkeit
    00:00 +23°C° 0 mm 0 m/S 760 mmHg 79%
    01:00 +23°C° 0 mm 0 m/S 760 mmHg 81%
    02:00 +25°C° 0 mm 1 m/S 760 mmHg 83%
    03:00 +24°C° 0 mm 1 m/S 760 mmHg 85%
    04:00 +24°C° 0 mm 1 m/S 761 mmHg 86%
    05:00 +22°C° 0 mm 0 m/S 761 mmHg 87%
    06:00 +22°C° 0 mm 0 m/S 761 mmHg 88%
    07:00 +25°C° 0 mm 0 m/S 761 mmHg 77%
    08:00 +30°C° 0 mm 1 m/S 762 mmHg 67%
    09:00 +32°C° 0 mm 1 m/S 762 mmHg 56%
    10:00 +33°C° 0 mm 1 m/S 762 mmHg 51%
    11:00 +35°C° 0 mm 2 m/S 761 mmHg 47%
    12:00 +36°C° 0 mm 2 m/S 761 mmHg 42%
    13:00 +36°C° 0 mm 2 m/S 760 mmHg 41%
    14:00 +36°C° 0 mm 2 m/S 760 mmHg 40%
    15:00 +36°C° 0 mm 2 m/S 759 mmHg 39%
    16:00 +34°C° 0 mm 2 m/S 759 mmHg 45%
    17:00 +31°C° 0 mm 1 m/S 759 mmHg 52%
    18:00 +29°C° 0 mm 1 m/S 759 mmHg 58%
    19:00 +29°C° 0 mm 1 m/S 760 mmHg 60%
    20:00 +28°C° 0 mm 2 m/S 760 mmHg 62%
    21:00 +28°C° 0 mm 2 m/S 760 mmHg 64%
    22:00 +27°C° 0 mm 2 m/S 760 mmHg 69%
    23:00 +26°C° 0 mm 1 m/S 760 mmHg 73%
    Mehr zeigen